Погода в Сухиничи

Погода в Сухиничи : погода сейчас, прогноз погоды и архив. Всё, что Вы хотите узнать о погоде в Сухиничи!

Хотите узнать прогноз погоды в Сухиничи? Тогда Вам сюда: Погода в Сухиничи

Поиск расширенной информации на нашем сайте:

Другие новости

Новости СМИ2

Главная страница сайта

Новости сайта

02.10.2013

Напоминаем, что на нашем новом сайте вы можете получить высокодетализированные прогнозы погоды по пунктам России, СНГ и мира (включающие важные для авиации метеовеличины, такие как направление и скорость ветра, видимость, явления погоды, количество и форма облачности, нижняя и верхняя граница облачности), а также ознакомиться с разнообразными материалами по авиационной метеорологии и подборкой полезных ссылок на эту тему.

Сайт Метеоцентр.Азия посвящён разработке технологий оптимизации авиаметеорологического обслуживания, включая проектирование и перспективное создание нескольких автоматизированных авиаметеорологических систем:
- система выпуска высокодетальных прогностических карт явлений погоды для нижнего воздушного пространства по России и ближнему зарубежью;
- система верификации прогнозов TAF (выпускаемых синоптиками официальных АМСГ РФ и ближнего зарубежья) и AUTOTAF (выпускаемых сайтом Метеоцентр.Азия) - выявление ошибок, онлайн-сопоставление с фактической погодой METAR, автоматическое внесение коррективов в прогнозы при резком отклонении фактической погоды от прогноза, подсчёт оправдываемости прогнозов по элементам и в целом;
- система обработки, анализа и отображения авиаметеорологической информации для применения провайдерами метеорологической информации.

Рекомендуем: стриптиз бары москвы

Погода в Сухиничи - сегодня

Время (UTC), дата Ветер
(°,м/с) 
Видим.   Явления Облачность Т
(°С)
Тd
(°С)
f(%) Тe
(°С)
Pmin
(гПа)
dP
(гПа)
Po
(мм)
O2
(г/м3)
Тmin Tmax R s Состояние
почвы
15 25.02.17 270 (З) 30000 м    8/3 600 м средняя, верхняя 
[Sc diur, vesp|Ac cuf|Cc]
-2.3 -8.8 61 -4  1003.6  0.7  731  298      0.0     
18 25.02.17 260 (З) 20000 м    5/5 2000 м средняя 
[Ac trans]
-2.9 -7.1 73 -6  1005.1  1.4  732  299    -0.2  0.0     
21 25.02.17 260 (З) 5{10}  20000 м    9/9 2000 м средняя 
[Ac As]
-3 -6.5 77 -7  1005.9  0.6  732  299           
00 26.02.17 270 (З) 5{11}  15000 м  слаб. ливневой снег  9/9 600 м кучево-дожд. 
[Cb cap]
-3.1 -5.3 85 -7  1006.9  733  299           
03 26.02.17 300 (СЗ) 5{14}  20000 м  {ливн. осадки}  ясно 
-5.6 -10.7 67 -10  1011.2  3.9  736  304  -5.6    0.2     
06 26.02.17 270 (З) 24000 м    4/4 600 м 
[Sc]
-5 -8.7 75 -8  1012.6  1.6  737  303  -7    0.4  21  равномерный
сухой снег
100% 
09 26.02.17 250 (З) 30000 м    9/9 2000 м средняя 
[Ac As]
-2.3 -8.1 64 -5  1012.5  737  300           
12 26.02.17 250 (З) 4-10{10}  40000 м    8/0 верхняя 
[Ci]
-0.3 -10.1 48 -3  1010.5  -1.7  736  298           
15 26.02.17 230 (ЮЗ) 3{10}  15000 м    10/10 2000 м 
[Ns]
-0.8 -6 68 -3  1008.6  -1.9  734  297           
18 26.02.17 220 (ЮЗ) 10 км  слаб. снег  10/10 2000 м 
[Ns]
-1.7 -3.3 89 -4  1006.4  -2.1  733  297    +0.7  0.3     
21 26.02.17 240 (ЮЗ) 3{11}  10 км  слаб. снег  10/10 2000 м 
[Ns]
-0.4 -2.1 88 -2  1004.6  -1.7  731  295           
00 27.02.17 240 (ЮЗ) 3{10}  4200 м  слаб. снег  10/10 300 м 
[Frnb|Ns]
-0.2 -0.6 97 -2  1003.6  -0.9  731  295           
03 27.02.17 250 (З) 10 км  {снег}  9/9 600 м 
[Sc]
+0.5 -0.3 94 -2  1003.6  731  294  -1.9       
06 27.02.17 260 (З) 10 км    9/9 600 м 
[Sc]
+0.9 -0.1 93 -1  1003.9  0.4  731  294  -1.7    22  равномерный
мокрый или
старый снег
100% 
09 27.02.17 260 (З) 13000 м  {ливн. осадки}  9/9 600 м кучево-дожд. 
[Cb cap]
+2.2 +0.1 86 1005.5  1.6  732  293           
12 27.02.17 270 (З) 15000 м  {ливн. осадки}  9/9 600 м 
[Sc]
+2.5 +0.5 87 +1  1007.2  1.7  734  293           
15 27.02.17 270 (З) 15000 м  {ливн. осадки}  9/9 600 м 
[Sc]
+1.3 -0.1 90 +1  1009.8  1.7  735  295           
18 27.02.17 260 (З) 10 км    ясно 
-1.1 -1.8 95 -1  1013.1  738  299    +3  0.0     
21 27.02.17 250 (З) 10 км    9/9 600 м 
[Sc]
-0.3 -1.2 94 1015.1  1.8  739  298           
00 28.02.17 230 (ЮЗ) 10 км    9/9 600 м 
[Sc]
-0.9 -1.9 93 1016.6  1.4  740  299           
03 28.02.17 тихо ()   10 км    9/9 600 м 
[Sc]
-0.6 -2.2 89 -1  1017.5  0.9  741  299  -1.5    0.0     
06 28.02.17 170 (Ю) 20000 м    9/9 600 м 
[Sc]
+1 -2.2 79 +2  1018  0.7  741  298  -1.5      20  равномерный
мокрый или
старый снег
100% 
09 28.02.17 170 (Ю) 20000 м    9/9 600 м 
[Sc]
+3.3 +0.2 80 +3  1018  0.2  741  295           
12 28.02.17 170 (Ю) 18000 м    9/9 600 м 
[Sc]
+4.4 +1.7 83 +4  1016.9  -1  741  293           
15 28.02.17 160 (Ю) 15000 м    9/9 600 м 
[Sc]
+3.3 +1.3 87 +2  1015.6  -1.4  740  294           
Время (UTC), дата Ветер
(°,м/с) 
Видим.   Явления Облачность Т
(°С)
Тd
(°С)
f(%) Тe
(°С)
Pmin
(гПа)
dP
(гПа)
Po
(мм)
O2
(г/м3)
Тmin Tmax R s Состояние
почвы

Для получения пояснительной информации подведите курсор к названию столбца.

ПОГОДА в Сухиничи - архив

Всё, что Вы хотите узнать о погоде в Сухиничи - удобно и подробно!

Выберите нужную дату (начиная с 1 января 2015* года) и нажмите кнопку "Найти".
Будут отображены архивные сводки погоды по пункту Сухиничи, начиная с указанной даты.


Отображать данные в формате CSV (для использования в таблицах Excel)


Внимание! Наш архив погоды предназначен исключительно для личного некоммерческого использования в познавательных целях. Если Вам необходимы официальные справки о состоянии погоды (для производственных, юридических, коммерческих и т.п. целей), обращайтесь в органы Росгидромета.

*Примечание: данная дата относится к архиву по метеостанциям СССР (Россия, СНГ, Балтия).
Архив по метеостанциям Зарубежной Европы и Азии (кроме Китая) хранится 10 дней, по другим регионам земного шара (Китай, Африка, Америка, Австралия, Океания) - 1 день.

Сухиничи - район местоположения метеостанции


Название, широта, долгота, высота метеостанции:
Сухиничи 54.1°ш. 35.3°д. 238 м над ур. моря [Российская Федерация]

Дополнительная информация

В oтличие oт бoльшинства пoгoдных сайтoв мы публикуем пoдрoбную метеoинфoрмацию в детальнoм прoфессиoнальнoм фoрмате.

Характеристики температуры и влажнoсти вoздуха измеряются на высoте 2 м в тени вдали oт зданий и деревьев.
Скoрoсть ветра измеряется на высoте 10 м (на урoвне рoста челoвека скoрoсть ветра ниже в 1.5-2 раза). Если метеoстанция нахoдится в гoрoде или в лесу, тo скoрoсть ветра занижена на 2-4 м/с пo сравнению с oткрытым местoм. Скoрoсть ветра над акватoриями крупных рек и oзёр, а также на вершинах хoлмoв на 2-5 м/с выше, чем в oбычных услoвиях.
Атмoсфернoе давление в разных тoчках местнoсти мoжет значительнo oтличаться oт давления на метеoстанции, в зависимoсти oт услoвий рельефа (при пoдъёме на 10 м давление пoнижается примернo на 1 мм рт.ст.).